WB5OMR-9 Weather Reports


time (UTC)temp
C
wind
direction
speed
KPH
gust
KPH
rain 1hr
cm
rain 24hr
cm
rain mn
cm
humidity
%
barometer
mb
20260904200654 40 112 0.0 0.0 0.00 0.00 0.00 39 1012.9
20260904195652 40 157 0.0 0.0 0.00 0.00 0.00 40 1012.9
20260904194651 38 112 0.0 0.0 0.00 0.00 0.00 43 1012.9
20260904193608 38 337 0.0 0.0 0.00 0.00 0.00 44 1013.2
20260904192524 38 112 0.0 0.0 0.00 0.00 0.00 45 1013.2
20260904191441 37 135 0.0 0.0 0.00 0.00 0.00 45 1013.2
20260904190357 37 157 0.0 0.0 0.00 0.00 0.00 45 1013.5
20260904185356 37 135 0.0 0.0 0.00 0.00 0.00 46 1013.5
20260904184355 37 157 0.0 0.0 0.00 0.00 0.00 46 1014.2
20260904183354 37 90 0.0 0.0 0.00 0.00 0.00 46 1013.9
20260904182352 37 180 0.0 0.0 0.00 0.00 0.00 45 1013.2
20260904181351 37 135 0.0 0.0 0.00 0.00 0.00 46 1012.9
20260904180307 36 180 0.0 0.0 0.00 0.00 0.00 48 1013.5
20260904175306 36 135 0.0 0.0 0.00 0.00 0.00 50 1013.5
20260904174305 35 180 0.0 0.0 0.00 0.00 0.00 52 1013.9
20260904173304 35 180 0.0 0.0 0.00 0.00 0.00 53 1014.2
20260904172305 34 180 0.0 0.0 0.00 0.00 0.00 55 1014.2
20260904171302 33 112 0.0 0.0 0.00 0.00 0.00 56 1014.2
20260904170301 33 135 0.0 0.0 0.00 0.00 0.00 58 1014.6
20260904165300 32 157 0.0 0.0 0.00 0.00 0.00 59 1014.6
20260904164259 32 157 0.0 0.0 0.00 0.00 0.00 60 1014.6
20260904163216 32 157 0.0 0.0 0.00 0.00 0.00 60 1014.6
20260904162132 33 135 0.0 0.0 0.00 0.00 0.00 60 1014.6
20260904161132 33 112 0.0 0.0 0.00 0.00 0.00 60 1014.6
20260904160131 32 157 0.0 0.0 0.00 0.00 0.00 62 1014.6
20260904155130 32 157 0.0 0.0 0.00 0.00 0.00 63 1014.6
20260904154128 31 112 0.0 0.0 0.00 0.00 0.00 67 1014.6
20260904153127 31 157 0.0 0.0 0.00 0.00 0.00 66 1014.2
20260904152044 30 180 0.0 0.0 0.00 0.00 0.00 69 1014.2
20260904150959 30 202 0.0 0.0 0.00 0.00 0.00 70 1014.2
20260904145958 30 67 0.0 0.0 0.00 0.00 0.00 70 1014.2
20260904144957 30 67 0.0 0.0 0.00 0.00 0.00 72 1014.2
20260904143956 29 157 0.0 0.0 0.00 0.00 0.00 74 1014.2
20260904142912 29 202 0.0 0.0 0.00 0.00 0.00 77 1014.2
20260904141911 28 135 0.0 0.0 0.00 0.00 0.00 79 1014.2
20260904140910 28 135 0.0 0.0 0.00 0.00 0.00 80 1014.2
20260904135910 27 112 0.0 0.0 0.00 0.00 0.00 81 1014.2
20260904134909 27 112 0.0 0.0 0.00 0.00 0.00 81 1014.2
20260904133908 27 112 0.0 0.0 0.00 0.00 0.00 81 1013.9
20260904132906 27 90 0.0 0.0 0.00 0.00 0.00 82 1013.9
20260904131905 27 67 0.0 0.0 0.00 0.00 0.00 82 1013.9
20260904130904 26 135 0.0 0.0 0.00 0.00 0.00 82 1013.5
20260904125903 26 135 0.0 0.0 0.00 0.00 0.00 82 1013.2
20260904124901 26 112 0.0 0.0 0.00 0.00 0.00 82 1013.2
20260904123900 26 112 0.0 0.0 0.00 0.00 0.00 82 1013.2
20260904122859 26 135 0.0 0.0 0.00 0.00 0.00 82 1013.2
20260904121858 26 112 0.0 0.0 0.00 0.00 0.00 82 1013.2
20260904120815 26 112 0.0 0.0 0.00 0.00 0.00 82 1013.2
20260904115731 26 112 0.0 0.0 0.00 0.00 0.00 82 1012.9
20260904114730 26 112 0.0 0.0 0.00 0.00 0.00 81 1012.9
20260904113729 26 112 0.0 0.0 0.00 0.00 0.00 80 1012.9
20260904112728 26 90 0.0 0.0 0.00 0.00 0.00 80 1012.9
20260904111727 26 112 0.0 0.0 0.00 0.00 0.00 80 1012.5
20260904110726 26 112 0.0 0.0 0.00 0.00 0.00 80 1012.5
20260904105643 26 112 0.0 0.0 0.00 0.00 0.00 80 1012.5
20260904104642 26 135 0.0 0.0 0.00 0.00 0.00 80 1012.2
20260904103558 26 112 0.0 0.0 0.00 0.00 0.00 79 1012.5
20260904102557 26 112 0.0 0.0 0.00 0.00 0.00 79 1012.5
20260904101555 26 112 0.0 0.0 0.00 0.00 0.00 79 1012.5
20260904100554 26 112 0.0 0.0 0.00 0.00 0.00 80 1012.5
20260904095553 26 157 0.0 0.0 0.00 0.00 0.00 80 1012.5
20260904094551 26 135 0.0 0.0 0.00 0.00 0.00 80 1012.5
20260904093550 26 157 0.0 0.0 0.00 0.00 0.00 80 1012.2
20260904092548 26 157 0.0 0.0 0.00 0.00 0.00 79 1012.5
20260904091548 26 135 0.0 0.0 0.00 0.00 0.00 79 1012.5
20260904090547 27 157 0.0 0.0 0.00 0.00 0.00 79 1012.5
20260904085546 27 157 0.0 0.0 0.00 0.00 0.00 79 1012.5
20260904084544 27 157 0.0 0.0 0.00 0.00 0.00 78 1012.5
20260904083543 27 157 0.0 0.0 0.00 0.00 0.00 78 1012.5
20260904082542 27 135 0.0 0.0 0.00 0.00 0.00 78 1012.9
20260904081541 27 112 0.0 0.0 0.00 0.00 0.00 78 1012.9
20260904080540 27 112 0.0 0.0 0.00 0.00 0.00 78 1012.9
20260904075538 27 157 0.0 0.0 0.00 0.00 0.00 78 1012.5
20260904074454 27 157 0.0 0.0 0.00 0.00 0.00 77 1012.9
20260904073411 27 135 0.0 0.0 0.00 0.00 0.00 77 1012.5
20260904072327 27 135 0.0 0.0 0.00 0.00 0.00 77 1012.9
20260904071243 27 157 0.0 0.0 0.00 0.00 0.00 77 1012.9
20260904070242 27 135 0.0 0.0 0.00 0.00 0.00 76 1012.9
20260904065241 27 135 0.0 0.0 0.00 0.00 0.00 75 1013.2
20260904064241 27 112 0.0 0.0 0.00 0.00 0.00 75 1013.2
20260904063240 27 90 0.0 0.0 0.00 0.00 0.00 75 1013.2
20260904062157 27 157 0.0 0.0 0.00 0.00 0.00 74 1013.2
20260904061113 27 157 0.0 0.0 0.00 0.00 0.00 74 1013.2
20260904060112 27 135 0.0 0.0 0.00 0.00 0.00 73 1013.2
20260904055111 27 135 0.0 0.0 0.00 0.00 0.00 73 1013.2
20260904054110 27 135 0.0 0.0 0.00 0.00 0.00 73 1013.2
20260904053109 28 135 0.0 0.0 0.00 0.00 0.00 72 1013.2
20260904052108 28 135 0.0 0.0 0.00 0.00 0.00 71 1012.9
20260904051024 28 157 0.0 0.0 0.00 0.00 0.00 70 1013.2
20260904050023 28 157 0.0 0.0 0.00 0.00 0.00 70 1013.2
20260904045023 28 112 0.0 0.0 0.00 0.00 0.00 68 1013.2
20260904044022 28 135 0.0 0.0 0.00 0.00 0.00 67 1013.2
20260904043021 29 157 0.0 0.0 0.00 0.00 0.00 66 1013.2
20260904042019 29 135 0.0 0.0 0.00 0.00 0.00 64 1013.2
20260904040936 29 135 0.0 0.0 0.00 0.00 0.00 62 1012.9
20260904035853 30 112 0.0 0.0 0.00 0.00 0.00 60 1012.9
20260904034851 30 90 0.0 0.0 0.00 0.00 0.00 56 1012.5
20260904033850 30 135 0.0 0.0 0.00 0.00 0.00 55 1012.5
20260904032848 30 135 0.0 0.0 0.00 0.00 0.00 54 1012.5
20260904031805 31 157 0.0 0.0 0.00 0.00 0.00 51 1012.2
20260904030721 31 135 0.0 0.0 0.00 0.00 0.00 50 1011.5
20260904025721 31 180 0.0 0.0 0.00 0.00 0.00 49 1012.2
20260904024720 32 180 0.0 0.0 0.00 0.00 0.00 48 1012.5
20260904023719 32 112 0.0 0.0 0.00 0.00 0.00 48 1011.9
20260904022718 32 135 0.0 0.0 0.00 0.00 0.00 48 1011.5
20260904021717 33 135 0.0 0.0 0.00 0.00 0.00 46 1011.5
20260904020716 33 180 0.0 0.0 0.00 0.00 0.00 45 1011.2
20260904015715 34 157 0.0 0.0 0.00 0.00 0.00 45 1011.2
20260904014713 35 180 0.0 0.0 0.00 0.00 0.00 45 1010.5
20260904013712 35 157 0.0 0.0 0.00 0.00 0.00 44 1010.5
20260904012711 36 112 0.0 0.0 0.00 0.00 0.00 40 1010.2
20260904011710 36 112 0.0 0.0 0.00 0.00 0.00 37 1009.8
20260904010708 36 67 0.0 0.0 0.00 0.00 0.00 36 1009.8
20260904005707 37 90 0.0 0.0 0.00 0.00 0.00 35 1009.8
20260904004624 37 112 0.0 0.0 0.00 0.00 0.00 35 1009.8
20260904003541 37 112 0.0 0.0 0.00 0.00 0.00 33 1009.8
20260904002540 38 135 0.0 0.0 0.00 0.00 0.00 33 1009.5
20260904001456 38 157 0.0 0.0 0.00 0.00 0.00 32 1009.5
20260904000455 38 112 0.0 0.0 0.00 0.00 0.00 32 1009.5
20260903235454 39 135 0.0 0.0 0.00 0.00 0.00 31 1009.5
20260903234454 40 112 0.0 0.0 0.00 0.00 0.00 30 1009.5
20260903233452 40 247 0.0 0.0 0.00 0.00 0.00 31 1009.5
20260903232408 41 247 0.0 0.0 0.00 0.00 0.00 30 1009.5
20260903231325 41 247 0.0 0.0 0.00 0.00 0.00 30 1009.5
20260903230324 41 247 0.0 0.0 0.00 0.00 0.00 30 1009.5
20260903225323 41 112 0.0 0.0 0.00 0.00 0.00 29 1009.5
20260903224322 42 90 0.0 0.0 0.00 0.00 0.00 28 1009.5
20260903223322 42 157 0.0 0.0 0.00 0.00 0.00 28 1009.5
20260903222320 42 45 0.0 0.0 0.00 0.00 0.00 28 1009.5
20260903221319 42 112 0.0 0.0 0.00 0.00 0.00 29 1009.5
20260903220319 42 112 0.0 0.0 0.00 0.00 0.00 29 1009.8
20260903215317 42 112 0.0 0.0 0.00 0.00 0.00 30 1009.8
20260903214316 42 112 0.0 0.0 0.00 0.00 0.00 30 1009.8
20260903213314 41 180 0.0 0.0 0.00 0.00 0.00 31 1009.8
20260903212314 42 157 0.0 0.0 0.00 0.00 0.00 31 1009.8
20260903211313 42 247 0.0 0.0 0.00 0.00 0.00 31 1010.2
20260903210311 42 157 0.0 0.0 0.00 0.00 0.00 31 1010.2
20260903205310 43 180 0.0 0.0 0.00 0.00 0.00 31 1010.2
20260903204309 42 135 0.0 0.0 0.00 0.00 0.00 33 1010.2
20260903203308 41 90 0.0 0.0 0.00 0.00 0.00 34 1010.5
20260903202307 41 135 0.0 0.0 0.00 0.00 0.00 34 1010.8